Eagle River, WI

8:34 PM CDT on April 19, 2018 (GMT -0500)
Eagle River Union

Weather History for KEGV - November, 2011

Change the Weather History Date:

Friday, November 4, 2011

  Actual Average Record
Temperature  
Mean Temperature 34 °F -  
Max Temperature 51 °F 37 °F 67 °F (2008)
Min Temperature 17 °F 25 °F 9 °F (1991)
Degree Days  
Heating Degree Days 31    
Moisture  
Dew Point 21 °F    
Average Humidity 70    
Maximum Humidity 100    
Minimum Humidity 25    
Precipitation  
Precipitation 0.00 in - - ()
Sea Level Pressure  
Sea Level Pressure 30.23 in    
Wind  
Wind Speed 2 mph (South)    
Max Wind Speed 8 mph    
Max Gust Speed -    
Visibility 10 miles    
Events      
Averages and records for this station are not official NWS values.
T = Trace of Precipitation, MM = Missing Value Source: NWS Daily Summary

Daily Weather History Graph

Daily Weather History Graph

Search for Another Location

Airport or City:

Astronomy

Nov. 04, 2011 Rise Set
Actual Time 7:41 AM CDT 5:39 PM CDT
Civil Twilight 7:09 AM CDT 6:10 PM CDT
Nautical Twilight 6:34 AM CDT 6:46 PM CDT
Astronomical Twilight 5:59 AM CDT 7:20 PM CDT
Moon 2:46 PM CDT (11/4) 1:35 AM CDT (11/4)
Length of Visible Light 11h 00m
Length of Day
9h 57m
Waxing Gibbous, 69% of the Moon is Illuminated
Nov 4
Waxing Gibbous
Nov 10
Full
Nov 18
Last Quarter
Nov 25
New
Dec 2
First Quarter

Hourly Weather History & Observations

Time (CDT) Temp. Windchill Dew Point Humidity Pressure Visibility Wind Dir Wind Speed Gust Speed Precip Events Conditions
12:15 AM 23.0 °F - 23.0 °F 100% 30.24 in 10.0 mi Calm Calm - N/A   Clear
12:35 AM 22.3 °F - 22.3 °F 100% 30.24 in 10.0 mi Calm Calm - N/A   Clear
12:55 AM 22.1 °F - 22.1 °F 100% 30.23 in 10.0 mi Calm Calm - N/A   Clear
1:15 AM 21.9 °F - 21.9 °F 100% 30.23 in 10.0 mi Calm Calm - N/A   Clear
1:35 AM 21.9 °F - 21.9 °F 100% 30.23 in 10.0 mi Calm Calm - N/A   Clear
1:55 AM 21.7 °F - 21.7 °F 100% 30.23 in 10.0 mi Calm Calm - N/A   Clear
2:15 AM 22.1 °F - 22.1 °F 100% 30.23 in 10.0 mi Calm Calm - N/A   Clear
2:35 AM 21.2 °F - 21.2 °F 100% 30.23 in 10.0 mi Calm Calm - N/A   Clear
2:55 AM 20.8 °F - 20.8 °F 100% 30.23 in 10.0 mi Calm Calm - N/A   Clear
3:15 AM 20.5 °F - 20.5 °F 100% 30.23 in 10.0 mi Calm Calm - N/A   Clear
3:35 AM 20.5 °F - 20.5 °F 100% 30.23 in 10.0 mi Calm Calm - N/A   Clear
4:15 AM 19.6 °F - 19.6 °F 100% 30.23 in 10.0 mi Calm Calm - N/A   Clear
4:35 AM 20.1 °F - 20.1 °F 100% 30.23 in 10.0 mi Calm Calm - N/A   Clear
4:55 AM 19.2 °F - 19.2 °F 100% 30.24 in 10.0 mi Calm Calm - N/A   Clear
5:15 AM 19.2 °F - 19.2 °F 100% 30.25 in 10.0 mi Calm Calm - N/A   Clear
5:35 AM 19.4 °F - 19.4 °F 100% 30.25 in 10.0 mi Calm Calm - N/A   Clear
5:55 AM 19.0 °F - 19.0 °F 100% 30.25 in 10.0 mi Calm Calm - N/A   Clear
6:15 AM 19.4 °F - 19.4 °F 100% 30.26 in 10.0 mi Calm Calm - N/A   Clear
6:35 AM 18.9 °F - 18.9 °F 100% 30.26 in 10.0 mi Calm Calm - N/A   Clear
6:55 AM 18.7 °F - 18.7 °F 100% 30.26 in 10.0 mi Calm Calm - N/A   Clear
7:15 AM 18.3 °F - 18.3 °F 100% 30.25 in 10.0 mi Calm Calm - N/A   Clear
7:35 AM 17.6 °F - 17.6 °F 100% 30.26 in 10.0 mi Calm Calm - N/A   Clear
7:55 AM 18.0 °F - 18.0 °F 100% 30.27 in 10.0 mi Calm Calm - N/A   Clear
8:15 AM 18.5 °F - 18.5 °F 100% 30.28 in 10.0 mi Calm Calm - N/A   Clear
8:35 AM 20.1 °F - 20.1 °F 100% 30.28 in 10.0 mi Calm Calm - N/A   Clear
8:55 AM 22.3 °F - 22.3 °F 100% 30.28 in 7.0 mi Calm Calm - N/A   Clear
9:15 AM 25.3 °F - 25.3 °F 100% 30.28 in 10.0 mi Calm Calm - N/A   Clear
9:35 AM 28.2 °F - 28.2 °F 100% 30.29 in 10.0 mi Calm Calm - N/A   Clear
9:55 AM 31.1 °F - 30.7 °F 99% 30.30 in 10.0 mi Calm Calm - N/A   Clear
10:35 AM 36.7 °F - 28.6 °F 72% 30.30 in 10.0 mi Calm Calm - N/A   Clear
10:55 AM 39.2 °F - 27.3 °F 62% 30.29 in 10.0 mi Calm Calm - N/A   Clear
11:15 AM 41.9 °F - 26.4 °F 54% 30.29 in 10.0 mi Calm Calm - N/A   Clear
11:35 AM 43.2 °F 41.5 °F 26.1 °F 51% 30.29 in 10.0 mi South 3.5 mph - N/A   Clear
11:55 AM 44.8 °F 42.4 °F 24.3 °F 45% 30.28 in 10.0 mi South 4.6 mph - N/A   Clear
12:15 PM 46.6 °F - 21.2 °F 37% 30.28 in 10.0 mi SW 8.1 mph - N/A   Clear
12:35 PM 47.5 °F - 20.3 °F 34% 30.28 in 10.0 mi SW 8.1 mph - N/A   Clear
1:15 PM 48.9 °F - 18.9 °F 30% 30.26 in 10.0 mi South 5.8 mph - N/A   Clear
1:35 PM 49.5 °F - 18.0 °F 29% 30.25 in 10.0 mi South 5.8 mph - N/A   Clear
1:55 PM 50.4 °F - 18.5 °F 28% 30.25 in 10.0 mi SW 8.1 mph - N/A   Clear
2:35 PM 51.4 °F - 19.0 °F 28% 30.24 in 10.0 mi SSW 3.5 mph - N/A   Clear
3:15 PM 51.4 °F - 18.5 °F 27% 30.23 in 10.0 mi SW 5.8 mph - N/A   Clear
3:35 PM 51.3 °F - 17.6 °F 26% 30.23 in 10.0 mi South 8.1 mph - N/A   Clear
3:55 PM 50.9 °F - 16.2 °F 25% 30.23 in 10.0 mi South 6.9 mph - N/A   Clear
4:35 PM 50.2 °F - 15.6 °F 25% 30.22 in 10.0 mi SSW 6.9 mph - N/A   Clear
4:55 PM 49.3 °F - 16.3 °F 27% 30.22 in 10.0 mi SSW 3.5 mph - N/A   Clear
5:15 PM 48.0 °F - 17.4 °F 30% 30.22 in 10.0 mi South 3.5 mph - N/A   Clear
5:35 PM 46.2 °F 43.3 °F 17.4 °F 32% 30.21 in 10.0 mi South 5.8 mph - N/A   Clear
5:55 PM 44.4 °F 41.2 °F 16.5 °F 33% 30.21 in 10.0 mi South 5.8 mph - N/A   Clear
6:15 PM 43.3 °F 41.7 °F 16.5 °F 34% 30.22 in 10.0 mi SW 3.5 mph - N/A   Clear
6:35 PM 42.1 °F 39.2 °F 17.2 °F 37% 30.21 in 10.0 mi South 4.6 mph - N/A   Clear
6:55 PM 40.1 °F 36.9 °F 18.3 °F 42% 30.21 in 10.0 mi South 4.6 mph - N/A   Clear
7:15 PM 38.5 °F 35.0 °F 19.0 °F 46% 30.20 in 10.0 mi SSE 4.6 mph - N/A   Clear
7:35 PM 38.1 °F 35.7 °F 19.8 °F 48% 30.20 in 10.0 mi SSE 3.5 mph - N/A   Clear
7:55 PM 36.7 °F 32.9 °F 20.8 °F 53% 30.19 in 10.0 mi South 4.6 mph - N/A   Clear
8:15 PM 36.5 °F 32.7 °F 21.7 °F 55% 30.18 in 10.0 mi SSE 4.6 mph - N/A   Clear
8:35 PM 36.9 °F 31.4 °F 22.3 °F 56% 30.18 in 10.0 mi SSE 6.9 mph - N/A   Clear
8:55 PM 37.2 °F 32.6 °F 22.8 °F 56% 30.18 in 10.0 mi South 5.8 mph - N/A   Clear
9:15 PM 36.9 °F 32.2 °F 23.5 °F 59% 30.18 in 10.0 mi South 5.8 mph - N/A   Clear
9:35 PM 36.7 °F 34.1 °F 24.1 °F 60% 30.18 in 10.0 mi SSE 3.5 mph - N/A   Clear
9:55 PM 35.6 °F 30.7 °F 24.4 °F 64% 30.18 in 10.0 mi SSE 5.8 mph - N/A   Clear
10:15 PM 34.9 °F 29.9 °F 24.8 °F 67% 30.18 in 10.0 mi SSE 5.8 mph - N/A   Clear
10:35 PM 34.9 °F 30.8 °F 25.5 °F 69% 30.17 in 10.0 mi South 4.6 mph - N/A   Clear
10:55 PM 34.2 °F 30.0 °F 25.7 °F 71% 30.17 in 10.0 mi South 4.6 mph - N/A   Clear
11:15 PM 33.4 °F 29.1 °F 26.4 °F 75% 30.16 in 10.0 mi South 4.6 mph - N/A   Clear
11:55 PM 33.1 °F 28.7 °F 27.5 °F 80% 30.16 in 10.0 mi South 4.6 mph - N/A   Clear